Location: Red Rock Farm
(35.2100°N, 97.2200°W)
Time: 22:44:28
(UTC-05:00)

ISS - All Passes

Search period start: 28 August 2016 00:00
Search period end: 07 September 2016 00:00
Orbit: 402 x 406 km, 51.6° (Epoch: 29 August)

Date Brightness Start Highest point End Pass type
(mag) Time Alt. Az. Time Alt. Az. Time Alt. Az.
28 Aug - 08:59:14 10° SW 09:02:30 89° WNW 09:05:48 10° NE daylight
28 Aug - 10:37:54 10° NW 10:39:24 12° NNW 10:40:55 10° N daylight
28 Aug - 15:29:52 10° NNW 15:32:42 26° NE 15:35:30 10° E daylight
28 Aug - 17:06:18 10° WNW 17:09:07 26° SW 17:11:54 10° S daylight
29 Aug - 08:07:07 10° SSW 08:10:11 40° SE 08:13:18 10° ENE daylight
29 Aug - 09:44:18 10° W 09:46:46 19° NNW 09:49:15 10° NNE daylight
29 Aug - 14:38:00 10° N 14:40:07 16° NNE 14:42:13 10° ENE daylight
29 Aug - 16:13:36 10° NW 16:16:49 58° SW 16:20:03 10° SE daylight
30 Aug - 07:15:33 10° S 07:17:57 19° SE 07:20:20 10° E daylight
30 Aug - 08:51:12 10° WSW 08:54:13 33° NW 08:57:15 10° NNE daylight
30 Aug - 13:46:46 10° NNE 13:47:26 10° NNE 13:48:05 10° NE daylight
30 Aug - 15:21:11 10° NW 15:24:27 63° NE 15:27:42 10° ESE daylight
31 Aug - 07:58:30 10° SW 08:01:45 68° NW 08:05:02 10° NE daylight
31 Aug - 09:37:49 10° NW 09:38:44 11° NNW 09:39:40 10° N daylight
31 Aug - 14:28:59 10° NNW 14:31:58 31° NE 14:34:56 10° E daylight
31 Aug - 16:05:47 10° W 16:08:17 20° SW 16:10:47 10° S daylight
01 Sep - 07:06:10 10° SSW 07:09:22 52° SE 07:12:34 10° ENE daylight
01 Sep - 08:43:51 10° WNW 08:46:03 17° NNW 08:48:16 10° NNE daylight
01 Sep - 13:36:59 10° NNW 13:39:23 18° NNE 13:41:46 10° ENE daylight
01 Sep - 15:12:51 10° WNW 15:16:00 43° SW 15:19:07 10° SSE daylight
02 Sep - 06:14:22 10° S 06:17:03 24° SE 06:19:45 10° ENE visible
02 Sep - 07:50:34 10° W 07:53:26 27° NW 07:56:18 10° NNE daylight
02 Sep - 12:45:21 10° N 12:46:41 12° NNE 12:48:02 10° NE daylight
02 Sep - 14:20:19 10° NW 14:23:36 82° NE 14:26:53 10° SE daylight
03 Sep - 05:23:37 10° SSE 05:24:48 12° SE 05:25:58 10° ESE visible
03 Sep - 06:57:42 10° WSW 07:00:53 52° NW 07:04:06 10° NE daylight
03 Sep - 13:28:01 10° NNW 13:31:07 38° NE 13:34:13 10° ESE daylight
03 Sep - 15:05:14 10° W 15:07:20 16° SW 15:09:26 10° SSW daylight
04 Sep - 06:05:12 10° SW 06:08:26 70° SE 06:11:42 10° NE visible
04 Sep - 07:43:20 10° WNW 07:45:13 14° NNW 07:47:06 10° N daylight
04 Sep - 12:35:54 10° NNW 12:38:32 22° NNE 12:41:09 10° E daylight
04 Sep - 14:12:02 10° WNW 14:15:02 33° SW 14:18:01 10° SSE daylight
05 Sep - 05:13:08 10° SSW 05:16:03 30° SE 05:18:59 10° ENE visible
05 Sep - 06:49:51 10° W 06:52:32 23° NNW 06:55:13 10° NNE daylight
05 Sep - 11:44:03 10° N 11:45:49 14° NNE 11:47:36 10° ENE daylight
05 Sep - 13:19:22 10° NW 13:22:39 77° SW 13:25:55 10° SE daylight
06 Sep - 04:21:50 10° SSE 04:23:44 15° SE 04:25:40 10° E visible
06 Sep - 05:56:49 10° WSW 05:59:56 41° NW 06:03:04 10° NE visible
06 Sep - 12:26:57 10° NW 12:30:09 48° NE 12:33:20 10° ESE daylight
06 Sep - 14:04:46 10° W 14:06:16 13° SW 14:07:45 10° SSW daylight
